Miscellaneous Local Product
Issued by NWS Hastings, NE

Home | Current Version | Previous Version | Graphics & Text | Print | Product List | Glossary On
Versions: 1 2 3 4 5 6 7 8 9 10 11 12 13 14 15 16 17 18 19 20 21 22 23 24 25 26 27 28 29 30 31 32 33 34 35 36 37 38 39 40 41 42 43 44 45 46 47 48 49 50
000
AXUS43 KGID 211002
MISGRI

GID CWA HOURLY WEATHER ROUNDUP
NATIONAL WEATHER SERVICE HASTINGS NE
500 AM CDT THU AUG 21 2014

NOTE: "FAIR" INDICATES FEW OR NO CLOUDS BELOW 12,000 FEET WITH NO
SIGNIFICANT WEATHER AND/OR OBSTRUCTIONS TO VISIBILITY.

...SOUTH CENTRAL NEBRASKA...

CITY           SKY/WX    TMP DP  RH WIND       PRES   REMARKS
GRAND ISLAND   CLOUDY    68  66  93 E6        29.84F THUNDER
HASTINGS       CLOUDY    73  65  75 SE10      29.81R
KEARNEY        MOCLDY    68  63  83 NE10      29.81S
ORD            PTCLDY    70  62  76 SE3       29.76R
YORK           CLOUDY    73 N/A N/A W8        29.83R
AURORA         RAIN      72  67  84 N3        29.88R
LEXINGTON      MOCLDY    70  65  82 SE8       29.78R
HOLDREGE       MOCLDY    71  67  88 CALM      29.79S
HEBRON         CLOUDY    74  65  71 CALM      29.82S

...NEBRASKA PANHANDLE...

CITY           SKY/WX    TMP DP  RH WIND       PRES   REMARKS
CHADRON        MOCLDY    59  52  77 W6        29.89R
ALLIANCE       CLOUDY    64  52  64 W8        29.92R
SCOTTSBLUFF    PTCLDY    62  50  64 N7        29.94R
SIDNEY         CLOUDY    66  56  70 W12       29.97R

...WESTERN AND NORTH CENTRAL NEBRASKA...

CITY           SKY/WX    TMP DP  RH WIND       PRES   REMARKS
VALENTINE      PTCLDY    67  60  78 NW10      29.79S
AINSWORTH      PTCLDY    67  61  80 W6        29.78S
ONEILL         MOCLDY    74  66  76 S7        29.78R
BROKEN BOW     PTCLDY    68  63  84 NW7       29.81R
IMPERIAL       PTCLDY    68  60  75 N7        29.88S
NORTH PLATTE   PTCLDY    64  61  90 NW7       29.84R
MCCOOK         CLEAR     68  63  84 N3        29.81R

...EASTERN NEBRASKA...

CITY           SKY/WX    TMP DP  RH WIND       PRES   REMARKS
NORFOLK        LGT RAIN  75  66  73 SW20G26   29.74R
SO SIOUX CITY  PTCLDY    78  70  76 S9        29.71S
TEKAMAH        CLOUDY    78  68  71 S10       29.75S
COLUMBUS       CLOUDY    55 N/A N/A SW12      29.79S
ALBION         CLOUDY    70  62  75 SW13G21   29.76F
OMAHA EPPLEY   CLOUDY    78  68  71 S12       29.77S
OFFUTT AFB     CLOUDY    79  70  74 S6        29.79R
MILLARD        CLOUDY    80  69  69 S5        29.78S
LINCOLN        CLOUDY    79  66  64 S7        29.80R
NEBRASKA CITY  CLOUDY    77  66  68 S14       29.80S
BEATRICE       CLOUDY    78  67  69 W6        29.83R
FALLS CITY     PTCLDY    79  69  71 S10       29.81S

...NORTHERN KANSAS...

CITY           SKY/WX    TMP DP  RH WIND       PRES   REMARKS
GOODLAND       CLEAR     64  58  80 NW7       29.91R
HILL CITY      MOCLDY    82  62  50 S10G21    29.78R
NORTON         SUNNY     75  61  60 SW5       29.78S
PHILLIPSBURG   RAIN      82  61  47 S10       29.76S
SMITH CENTER   MOCLDY    79  63  57 S9        29.79R
BELOIT         CLEAR     79  63  57 SE7       29.77S
HAYS           MOCLDY    79  59  50 S16       29.80S
RUSSELL        PTCLDY    80  58  46 S17G25    29.78S
CONCORDIA      PTCLDY    77  66  68 S16G26    29.78F
SALINA         CLEAR     79  65  62 S14       29.81S
TOPEKA         CLEAR     81  70  69 S15G23    29.85S



USA.gov is the U.S. government's official web portal to all federal, state and local government web resources and services.